Weather History for Indiana, PA

Change the Weather History Date:

Thursday, April 11, 2013

  Actual Average Record
Temperature  
Mean Temperature 62 °F -  
Max Temperature 73 °F 58 °F 83 °F (1977)
Min Temperature 51 °F 32 °F 19 °F (1960)
Degree Days  
Heating Degree Days 3    
Growing Degree Days 12 (Base 50)    
Moisture  
Dew Point 57 °F    
Average Humidity 88    
Maximum Humidity 100    
Minimum Humidity 61    
Precipitation  
Precipitation 0.02 in - - ()
Sea Level Pressure  
Sea Level Pressure 29.82 in    
Wind  
Wind Speed 5 mph (SSE)    
Max Wind Speed 16 mph    
Max Gust Speed 22 mph    
Visibility 10 miles    
Events      
Averages and records for this station are not official NWS values.
T = Trace of Precipitation, MM = Missing Value Source: NWS Daily Summary

Daily Weather History Graph

Daily Weather History Graph

Search for Another Location

Airport:

Trip Planner

Search our weather history database for the weather conditions in past years. The results will help you decide how hot, cold, wet, or windy it might be!

Date:

Astronomy

Apr. 11, 2013 Rise Set
Actual Time 6:43 AM EDT 7:51 PM EDT
Civil Twilight 6:15 AM EDT 8:19 PM EDT
Nautical Twilight 5:42 AM EDT 8:53 PM EDT
Astronomical Twilight 5:07 AM EDT 9:28 PM EDT
Moon 7:13 AM EDT (4/11) 9:25 PM EDT (4/11)
Length of Visible Light 14h 04m
Length of Day
13h 08m
New Moon, 2% of the Moon is Illuminated
Apr 11
New Moon
Apr 18
First Quarter
Apr 25
Full
May 2
Last Quarter
May 9
New

Hourly Weather History & Observations

Time (EDT) Temp. Dew Point Humidity Pressure Visibility Wind Dir Wind Speed Gust Speed Precip Events Conditions
12:15 AM 57.2 °F 57.2 °F 100% 29.87 in 10.0 mi SE 3.5 mph - N/A   Unknown
12:35 AM 59.0 °F 59.0 °F 100% 29.85 in 10.0 mi South 8.1 mph - N/A   Unknown
12:55 AM 57.2 °F 57.2 °F 100% 29.85 in 10.0 mi SW 3.5 mph - N/A   Unknown
1:15 AM 57.2 °F 57.2 °F 100% 29.87 in 10.0 mi WSW 5.8 mph - N/A   Unknown
1:35 AM 57.2 °F 57.2 °F 100% 29.90 in 10.0 mi West 4.6 mph - N/A   Unknown
1:55 AM 57.2 °F 57.2 °F 100% 29.89 in 5.0 mi Calm Calm - 0.01 in   Unknown
2:15 AM 57.2 °F 57.2 °F 100% 29.89 in 10.0 mi Calm Calm - N/A   Unknown
2:35 AM 57.2 °F 57.2 °F 100% 29.88 in 10.0 mi Calm Calm - N/A   Unknown
2:55 AM 57.2 °F 57.2 °F 100% 29.91 in 7.0 mi West 4.6 mph - N/A   Unknown
3:15 AM 57.2 °F 57.2 °F 100% 29.91 in 10.0 mi Calm Calm - N/A   Unknown
3:35 AM 59.0 °F 59.0 °F 100% 29.91 in 10.0 mi Calm Calm - 0.01 in   Unknown
3:55 AM 57.2 °F 57.2 °F 100% 29.91 in 10.0 mi SW 3.5 mph - 0.01 in   Unknown
4:15 AM 57.2 °F 57.2 °F 100% 29.89 in 10.0 mi SSE 3.5 mph - N/A   Unknown
4:35 AM 57.2 °F 57.2 °F 100% 29.88 in 10.0 mi Calm Calm - N/A   Unknown
4:55 AM 57.2 °F 57.2 °F 100% 29.86 in 10.0 mi Calm Calm - N/A   Unknown
5:15 AM 57.2 °F 57.2 °F 100% 29.86 in 7.0 mi Calm Calm - N/A   Unknown
5:35 AM 55.4 °F 55.4 °F 100% 29.86 in 10.0 mi Calm Calm - N/A   Unknown
5:55 AM 55.4 °F 55.4 °F 100% 29.85 in 10.0 mi Calm Calm - N/A   Unknown
6:15 AM 55.4 °F 55.4 °F 100% 29.85 in 10.0 mi Calm Calm - N/A   Unknown
6:35 AM 57.2 °F 57.2 °F 100% 29.84 in 10.0 mi Calm Calm - N/A   Unknown
6:55 AM 57.2 °F 57.2 °F 100% 29.85 in 10.0 mi Calm Calm - N/A   Unknown
7:15 AM 57.2 °F 57.2 °F 100% 29.85 in 10.0 mi Calm Calm - N/A   Unknown
7:35 AM 57.2 °F 57.2 °F 100% 29.85 in 10.0 mi Calm Calm - N/A   Unknown
7:55 AM 59.0 °F 59.0 °F 100% 29.85 in 10.0 mi Calm Calm - N/A   Unknown
8:15 AM 60.8 °F 57.2 °F 88% 29.85 in 10.0 mi Calm Calm - N/A   Unknown
8:35 AM 60.8 °F 60.8 °F 100% 29.85 in 10.0 mi Calm Calm - N/A   Unknown
8:55 AM 62.6 °F 60.8 °F 94% 29.85 in 10.0 mi Calm Calm - N/A   Unknown
9:15 AM 64.4 °F 59.0 °F 83% 29.85 in 10.0 mi South 5.8 mph - N/A   Unknown
9:35 AM 64.4 °F 60.8 °F 88% 29.85 in 10.0 mi South 6.9 mph - N/A   Unknown
9:55 AM 66.2 °F 60.8 °F 83% 29.85 in 10.0 mi SSW 5.8 mph - N/A   Unknown
10:15 AM 69.8 °F 60.8 °F 73% 29.85 in 10.0 mi SSW 5.8 mph - N/A   Unknown
10:35 AM 69.8 °F 60.8 °F 73% 29.85 in 10.0 mi SSW 6.9 mph - N/A   Unknown
10:55 AM 69.8 °F 60.8 °F 73% 29.85 in 10.0 mi Calm Calm - N/A   Unknown
11:15 AM 69.8 °F 60.8 °F 73% 29.85 in 10.0 mi SW 6.9 mph - N/A   Unknown
11:35 AM 69.8 °F 60.8 °F 73% 29.85 in 10.0 mi SW 10.4 mph - N/A   Unknown
11:55 AM 69.8 °F 60.8 °F 73% 29.85 in 10.0 mi WSW 11.5 mph - N/A   Unknown
12:15 PM 71.6 °F 60.8 °F 69% 29.84 in 10.0 mi WSW 11.5 mph - N/A   Unknown
12:35 PM 71.6 °F 60.8 °F 69% 29.84 in 10.0 mi WSW 6.9 mph - N/A   Unknown
1:15 PM 71.6 °F 60.8 °F 69% 29.83 in 10.0 mi West 12.7 mph - N/A   Unknown
1:35 PM 73.4 °F 60.8 °F 65% 29.82 in 10.0 mi WSW 13.8 mph - N/A   Unknown
1:55 PM 71.6 °F 60.8 °F 69% 29.82 in 10.0 mi WNW 6.9 mph - N/A   Unknown
2:15 PM 71.6 °F 60.8 °F 69% 29.82 in 10.0 mi WNW 5.8 mph - N/A   Unknown
2:35 PM 71.6 °F 60.8 °F 69% 29.82 in 10.0 mi NW 5.8 mph - N/A   Unknown
2:55 PM 71.6 °F 60.8 °F 69% 29.81 in 10.0 mi Calm Calm - N/A   Unknown
3:15 PM 71.6 °F 60.8 °F 69% 29.80 in 10.0 mi West 3.5 mph - N/A   Unknown
3:35 PM 73.4 °F 60.8 °F 65% 29.78 in 10.0 mi SW 6.9 mph - N/A   Unknown
3:55 PM 73.4 °F 60.8 °F 65% 29.78 in 10.0 mi WSW 4.6 mph - N/A   Unknown
4:15 PM 73.4 °F 59.0 °F 61% 29.78 in 10.0 mi West 4.6 mph - N/A   Unknown
4:35 PM 69.8 °F 60.8 °F 73% 29.77 in 10.0 mi ESE 5.8 mph - N/A   Unknown
4:55 PM 66.2 °F 59.0 °F 78% 29.77 in 10.0 mi East 6.9 mph - N/A   Unknown
5:15 PM 66.2 °F 57.2 °F 73% 29.77 in 10.0 mi East 8.1 mph - N/A   Unknown
5:35 PM 64.4 °F 57.2 °F 77% 29.77 in 10.0 mi ENE 9.2 mph - N/A   Unknown
5:55 PM 62.6 °F 55.4 °F 77% 29.78 in 10.0 mi ENE 10.4 mph - N/A   Unknown
6:15 PM 60.8 °F 55.4 °F 82% 29.78 in 10.0 mi ENE 10.4 mph - N/A   Unknown
6:35 PM 57.2 °F 53.6 °F 88% 29.79 in 10.0 mi East 13.8 mph 18.4 mph N/A   Unknown
6:55 PM 55.4 °F 53.6 °F 94% 29.77 in 10.0 mi East 15.0 mph 19.6 mph N/A   Unknown
7:15 PM 55.4 °F 51.8 °F 88% 29.77 in 10.0 mi East 12.7 mph 17.3 mph N/A   Unknown
7:35 PM 53.6 °F 51.8 °F 94% 29.77 in 10.0 mi East 13.8 mph 18.4 mph N/A   Unknown
7:55 PM 53.6 °F 51.8 °F 94% 29.77 in 10.0 mi East 12.7 mph 20.7 mph N/A   Unknown
8:15 PM 53.6 °F 51.8 °F 94% 29.77 in 10.0 mi East 9.2 mph - N/A   Unknown
8:35 PM 53.6 °F 51.8 °F 94% 29.76 in 10.0 mi East 11.5 mph 18.4 mph N/A   Unknown
8:55 PM 51.8 °F 51.8 °F 100% 29.77 in 10.0 mi East 10.4 mph 21.9 mph N/A   Unknown
9:15 PM 51.8 °F 51.8 °F 100% 29.77 in 10.0 mi East 10.4 mph 17.3 mph N/A   Unknown
9:35 PM 51.8 °F 50.0 °F 94% 29.75 in 10.0 mi East 11.5 mph 18.4 mph N/A   Unknown
9:55 PM 51.8 °F 50.0 °F 94% 29.74 in 10.0 mi East 9.2 mph 18.4 mph N/A   Unknown
10:15 PM 51.8 °F 51.8 °F 100% 29.74 in 7.0 mi East 10.4 mph 16.1 mph N/A   Unknown
10:35 PM 53.6 °F 51.8 °F 94% 29.73 in 7.0 mi ESE 16.1 mph 21.9 mph N/A   Unknown
10:55 PM 53.6 °F 51.8 °F 94% 29.71 in 7.0 mi ESE 13.8 mph 18.4 mph N/A   Unknown
11:15 PM 53.6 °F 51.8 °F 94% 29.70 in 7.0 mi ESE 10.4 mph 18.4 mph N/A   Unknown
11:35 PM 53.6 °F 53.6 °F 100% 29.69 in 7.0 mi ESE 12.7 mph 19.6 mph N/A   Unknown
11:55 PM 53.6 °F 53.6 °F 100% 29.68 in 7.0 mi East 13.8 mph 19.6 mph N/A   Unknown